Regional Weather Roundup
Issued by NWS

Home | Current Version | Previous Version | Graphics & Text | Print | Product List | Glossary On
Versions: 1 2 3 4 5 6 7 8 9 10 11 12 13 14 15 16 17 18 19 20 21 22 23 24 25 26 27 28 29 30 31 32 33 34 35 36 37 38 39 40 41 42 43 44 45 46 47 48 49 50
000
ASUS44 KMEG 290200
RWRTN
TENNESSEE HOURLY STATE WEATHER ROUNDUP
NATIONAL WEATHER SERVICE MEMPHIS TN
900 PM CDT THU JUL 28 2016

TNZ002-004-019-021-049-052-054-088>092-290300-
WEST TENNESSEE

CITY           SKY/WX    TMP DP  RH WIND       PRES   REMARKS
MEMPHIS INTL   CLOUDY    82  76  81 S8        29.94S
NWS MEMPHIS      N/A     81 N/A N/A MISG        N/A
JACKSON        PTCLDY    79  76  90 SW7       29.94S
DYERSBURG      CLOUDY   N/A N/A N/A MISG        N/A
UNION CITY     CLEAR     75  70  83 SW8       29.92R
PARIS          CLEAR     75  73  94 CALM      29.93S
LEXINGTON      PTCLDY    79  75  89 S5        29.94S
$$

TNZ008-025-027-028-033-062-065-066-290300-
NORTH MIDDLE TENNESSEE

CITY           SKY/WX    TMP DP  RH WIND       PRES   REMARKS
NASHVILLE      MOCLDY    79  73  82 S6        29.95R
CLARKSVILLE    CLEAR     80  75  84 S3        29.92S
COOKEVILLE     CLEAR     73  73 100 CALM      29.98R
CROSSVILLE     CLOUDY    71  70  96 W3        30.03R
$$

TNZ061-075-076-078-094-096-097-290300-
SOUTH MIDDLE TENNESSEE

CITY           SKY/WX    TMP DP  RH WIND       PRES   REMARKS
TULLAHOMA      MOCLDY    72  72 100 SW5       30.01S
WINCHESTER     MOCLDY    72  72 100 CALM      30.00S
MCMINNVILLE    MOCLDY    75  75 100 CALM      29.99R
COLUMBIA       CLEAR    N/A N/A N/A S7        29.96R
SHELBYVILLE    PTCLDY    75  73  94 S7        29.99R
$$

TNZ017-018-042-046-047-290300-
NORTHEAST TENNESSEE

CITY           SKY/WX    TMP DP  RH WIND       PRES   REMARKS
TRI CITIES     RAIN      72  69  90 N6        29.96S FOG
$$

TNZ012-013-036-069-073-074-290300-
CENTRAL EAST TENNESSEE

CITY           SKY/WX    TMP DP  RH WIND       PRES   REMARKS
KNOXVILLE      CLOUDY    74  70  87 SW7       29.96R
OAK RIDGE      LGT RAIN  74  71  91 CALM      29.99R
GATLINBURG     CLOUDY    75  70  83 SW3       29.96R
$$

TNZ083-085-099-290300-
SOUTHEAST TENNESSEE

CITY           SKY/WX    TMP DP  RH WIND       PRES   REMARKS
CHATTANOOGA    CLOUDY    77  71  82 SW6       29.97F
$$

SKY/WX REPORTED AS FAIR MEANS FEW OR NO CLOUDS BELOW
12 THOUSAND FEET.




USA.gov is the U.S. government's official web portal to all federal, state and local government web resources and services.